Weather in Parfenovo

Russia / Irkutsk Oblast     52°59′21″N   102°50′59″E
temp.,
°C
wind,
m/s
gust,
m/s
humid.,
%
clouds,
%
prec.,
mm/h
press.,
hPa
HPBL,
m
17 may, mon
mon1723:00+10ne2484100 0.2 1010289
02:00+8n3591100 0.7 1009359
05:00+7n4890100 1.1 1009660
08:00+8wnw3791100 2.3 1011563
11:00+9wnw457395 0.1 1011715
14:00+9nw3468100 0.1 1010857
17:00+6nnw5885100 0.1 1012692
20:00+6wnw3783100 0.2 1012526
18 may, tue
tue1823:00+5wnw4890100 0.0 1013346
02:00+6wnw2591100 0.1 1013343
05:00+5nnw2386100 0.3 1013296
08:00+5wnw228794 0.3 1013310
11:00+6wsw238490 0.0 1012484
14:00+11nw466324 0.1 1009973
17:00+12n3356100 0.0 10061165
20:00+10ene4467100 0.0 1004433
19 may, wed
wed1923:00+8e61173100 0.1 999400
02:00+7ene51074100 0.1 996381
05:00+5n5995100 11.9 999515
08:00+4nw71196100 13.3 1007858
11:00+6nw4584100 0.1 1008674
14:00+8s2274100 0.1 1006869
17:00+10ese3465100 0.0 1003873
20:00+9e487591 0.1 1000304
20 may, thu
thu2023:00+7ene5986100 0.1 1000364
02:00+6nne3793100 0.4 1000288
05:00+6n3695100 0.0 1001349
08:00+5n4693100 0.4 1002397
11:00+5nnw2393100 0.6 1003406
14:00+6nnw2490100 1.9 1002360
17:00+5nw2395100 7.8 1002286
20:00+4w4698100 12.1 1003243
21 may, fri
fri2123:00+5nw4795100 4.6 1002772
02:00+3nw71198100 8.3 1002663
05:00+1nw81598100 5.3 1003621
08:00+1nw81498100 7.9 1004620
11:00+2nw91698100 0.6 1006810
14:00+2nw101797100 1.9 1007933
17:00+3wnw101794100 1.2 10091030
20:00+3nw101894100 2.6 10111039